Regional Weather Roundup
Issued by NWS

Home | Current Version | Previous Version | Text Only | Print | Product List | Glossary On
Versions: 1 2 3 4 5 6 7 8 9 10 11 12 13 14 15 16 17 18 19 20 21 22 23 24 25 26 27 28 29 30 31 32 33 34 35 36 37 38 39 40 41 42 43 44 45 46 47 48 49 50
155
ASUS43 KBIS 201202
RWRND

NORTH DAKOTA REGIONAL WEATHER ROUNDUP
NATIONAL WEATHER SERVICE BISMARCK ND
600 AM CST MON FEB 20 2017

NOTE: "FAIR" INDICATES FEW OR NO CLOUDS BELOW 12,000 FEET WITH NO
SIGNIFICANT WEATHER AND/OR OBSTRUCTIONS TO VISIBILITY.


NDZ001>003-009>011-017-201300-
NORTHWEST NORTH DAKOTA

CITY           SKY/WX    TMP DP  RH WIND       PRES   REMARKS
WILLISTON      FAIR      33  32  96 SW3       29.68R
6HR MIN TEMP:  33; 6HR MAX TEMP:  34;

MINOT          CLOUDY    35  33  92 NW8       29.63R
MINOT AFB      CLOUDY    33  32  96 NW10      29.63R
$$

NDZ018>021-031>035-040>046-201300-
SOUTHWEST NORTH DAKOTA

CITY           SKY/WX    TMP DP  RH WIND       PRES   REMARKS
BISMARCK       CLOUDY    39  35  86 NW6       29.65R
6HR MIN TEMP:  35; 6HR MAX TEMP:  39; 6HR PCP:  0.02;

DICKINSON      CLOUDY    36  33  89 W15       29.66R
GARRISON         N/A     34  32  92 NW9       29.64R
6HR MIN TEMP:  33; 6HR MAX TEMP:  37;

HETTINGER ARPT CLOUDY    40  34  79 NW13      29.70R
$$

NDZ004>008-012>016-024-026-027-054-201300-
NORTHEAST NORTH DAKOTA

CITY           SKY/WX    TMP DP  RH WIND       PRES   REMARKS
GRAND FORKS    FOG       38  35  89 SW3       29.58R VSB 1
GRND FRKS AFB  FOG       36  36  99 CALM      29.58S VSB 1/4
DEVILS LAKE    LGT RAIN  34  34 100 NW13      29.58R
$$

NDZ022-023-025-028>030-036>039-047>053-201300-
SOUTHEAST NORTH DAKOTA

CITY           SKY/WX    TMP DP  RH WIND       PRES   REMARKS
FARGO          LGT RAIN  51  48  89 S17G26    29.61R
6HR MIN TEMP:  51; 6HR MAX TEMP:  54; 6HR PCP:  0.01;

JAMESTOWN      FOG       37  37 100 W3        29.56R VSB 1/4
$$





USA.gov is the U.S. government's official web portal to all federal, state and local government web resources and services.